| time (UTC) | temp F | wind direction | speed knots | gust knots | rain 1hr in | rain 24hr in | rain mn in | humidity % | barometer mb |
| 20260906105044 | 61 | 24 | 0.9 | 1.7 | 0.00 | 0.01 | 0.00 | 97 | 1018.3 |
| 20260906104604 | 61 | 0 | 0.0 | 0.9 | 0.00 | 0.01 | 0.00 | 97 | 1018.3 |
| 20260906104044 | 61 | 0 | 0.0 | 0.9 | 0.00 | 0.01 | 0.00 | 97 | 1018.0 |
| 20260906103544 | 61 | 0 | 0.0 | 0.0 | 0.00 | 0.01 | 0.00 | 97 | 1018.0 |
| 20260906103101 | 61 | 0 | 0.0 | 0.9 | 0.00 | 0.01 | 0.00 | 97 | 1018.1 |
| 20260906102545 | 61 | 0 | 0.0 | 0.9 | 0.00 | 0.01 | 0.00 | 97 | 1018.2 |
| 20260906102046 | 61 | 0 | 0.0 | 0.9 | 0.00 | 0.01 | 0.00 | 97 | 1018.2 |
| 20260906101557 | 61 | 24 | 0.0 | 1.7 | 0.00 | 0.01 | 0.00 | 96 | 1018.3 |
| 20260906101046 | 61 | 24 | 0.0 | 1.7 | 0.00 | 0.01 | 0.00 | 96 | 1018.4 |
| 20260906100548 | 62 | 24 | 0.9 | 1.7 | 0.00 | 0.01 | 0.00 | 96 | 1018.3 |
| 20260906095544 | 62 | 0 | 0.0 | 0.9 | 0.00 | 0.02 | 0.00 | 97 | 1018.0 |
| 20260906095044 | 62 | 0 | 0.0 | 0.9 | 0.00 | 0.02 | 0.00 | 97 | 1018.1 |
| 20260906094608 | 62 | 24 | 0.0 | 0.9 | 0.00 | 0.02 | 0.00 | 97 | 1018.2 |
| 20260906094044 | 62 | 0 | 0.0 | 0.0 | 0.00 | 0.02 | 0.00 | 97 | 1018.3 |
| 20260906093544 | 62 | 0 | 0.0 | 0.0 | 0.00 | 0.02 | 0.00 | 96 | 1018.3 |
| 20260906093100 | 62 | 0 | 0.0 | 0.0 | 0.00 | 0.02 | 0.00 | 96 | 1018.3 |
| 20260906092546 | 62 | 0 | 0.0 | 0.0 | 0.00 | 0.02 | 0.00 | 96 | 1018.1 |
| 20260906092046 | 62 | 0 | 0.0 | 0.0 | 0.00 | 0.02 | 0.00 | 96 | 1018.2 |
| 20260906091605 | 62 | 0 | 0.0 | 0.9 | 0.00 | 0.02 | 0.00 | 96 | 1018.2 |
| 20260906091048 | 62 | 0 | 0.0 | 0.9 | 0.00 | 0.02 | 0.00 | 96 | 1018.2 |
| 20260906090545 | 62 | 24 | 0.0 | 0.9 | 0.00 | 0.02 | 0.00 | 96 | 1018.1 |
| 20260906090104 | 62 | 0 | 0.0 | 0.9 | 0.00 | 0.02 | 0.00 | 96 | 1018.1 |
| 20260906085546 | 62 | 0 | 0.0 | 0.9 | 0.00 | 0.02 | 0.00 | 96 | 1018.1 |
| 20260906085048 | 62 | 0 | 0.0 | 0.9 | 0.00 | 0.02 | 0.00 | 96 | 1018.1 |
| 20260906084605 | 62 | 0 | 0.0 | 0.0 | 0.00 | 0.02 | 0.00 | 96 | 1018.2 |
| 20260906084045 | 62 | 0 | 0.0 | 0.0 | 0.00 | 0.02 | 0.00 | 96 | 1018.1 |
| 20260906083547 | 62 | 0 | 0.0 | 0.9 | 0.00 | 0.02 | 0.00 | 96 | 1018.1 |
| 20260906083105 | 62 | 0 | 0.0 | 0.9 | 0.00 | 0.02 | 0.00 | 96 | 1018.0 |
| 20260906082546 | 62 | 0 | 0.0 | 1.7 | 0.00 | 0.02 | 0.00 | 96 | 1018.1 |
| 20260906082046 | 62 | 0 | 0.0 | 1.7 | 0.00 | 0.02 | 0.00 | 96 | 1018.1 |
| 20260906081605 | 62 | 24 | 0.0 | 1.7 | 0.00 | 0.02 | 0.00 | 96 | 1018.0 |
| 20260906081044 | 63 | 0 | 0.9 | 1.7 | 0.00 | 0.02 | 0.00 | 96 | 1018.1 |
| 20260906080547 | 63 | 24 | 0.0 | 1.7 | 0.00 | 0.02 | 0.00 | 96 | 1018.0 |
| 20260906080105 | 63 | 24 | 0.0 | 1.7 | 0.00 | 0.02 | 0.00 | 96 | 1018.1 |
| 20260906075545 | 63 | 78 | 0.9 | 1.7 | 0.00 | 0.02 | 0.00 | 96 | 1018.0 |
| 20260906075046 | 63 | 138 | 0.0 | 0.9 | 0.00 | 0.02 | 0.00 | 96 | 1017.9 |
| 20260906074607 | 63 | 0 | 0.0 | 1.7 | 0.00 | 0.02 | 0.00 | 96 | 1018.0 |
| 20260906074046 | 63 | 0 | 0.0 | 1.7 | 0.00 | 0.02 | 0.00 | 96 | 1018.0 |
| 20260906073546 | 63 | 0 | 0.0 | 1.7 | 0.00 | 0.02 | 0.00 | 96 | 1018.0 |
| 20260906073059 | 64 | 0 | 0.0 | 1.7 | 0.00 | 0.02 | 0.00 | 96 | 1018.2 |
| 20260906072546 | 64 | 138 | 0.9 | 1.7 | 0.00 | 0.02 | 0.00 | 96 | 1018.1 |
| 20260906072046 | 64 | 138 | 0.9 | 1.7 | 0.00 | 0.02 | 0.00 | 96 | 1018.0 |
| 20260906071600 | 64 | 138 | 0.9 | 1.7 | 0.00 | 0.02 | 0.00 | 96 | 1018.1 |
| 20260906071046 | 64 | 138 | 0.9 | 1.7 | 0.00 | 0.02 | 0.00 | 96 | 1018.2 |
| 20260906070546 | 65 | 0 | 0.0 | 0.0 | 0.00 | 0.02 | 0.00 | 96 | 1018.2 |
| 20260906070106 | 65 | 0 | 0.0 | 0.0 | 0.00 | 0.02 | 0.00 | 96 | 1018.2 |
| 20260906065547 | 65 | 0 | 0.0 | 0.0 | 0.00 | 0.02 | 0.00 | 96 | 1018.2 |
| 20260906065049 | 65 | 0 | 0.0 | 0.9 | 0.00 | 0.02 | 0.00 | 96 | 1018.3 |
| 20260906064602 | 65 | 0 | 0.0 | 0.9 | 0.00 | 0.02 | 0.00 | 96 | 1018.3 |
| 20260906064047 | 65 | 0 | 0.0 | 0.0 | 0.00 | 0.02 | 0.00 | 96 | 1018.3 |
| 20260906063545 | 65 | 0 | 0.0 | 0.0 | 0.00 | 0.02 | 0.00 | 96 | 1018.4 |
| 20260906063106 | 65 | 0 | 0.0 | 0.9 | 0.00 | 0.02 | 0.00 | 96 | 1018.3 |
| 20260906062545 | 66 | 0 | 0.0 | 0.9 | 0.00 | 0.02 | 0.00 | 96 | 1018.3 |
| 20260906062045 | 66 | 0 | 0.0 | 0.9 | 0.00 | 0.02 | 0.00 | 96 | 1018.2 |
| 20260906061607 | 66 | 0 | 0.0 | 0.9 | 0.00 | 0.02 | 0.00 | 96 | 1018.3 |
| 20260906061046 | 66 | 0 | 0.0 | 0.9 | 0.00 | 0.02 | 0.00 | 95 | 1018.4 |
| 20260906060545 | 66 | 0 | 0.0 | 0.9 | 0.00 | 0.02 | 0.00 | 96 | 1018.3 |
| 20260906060107 | 66 | 138 | 0.0 | 0.9 | 0.00 | 0.02 | 0.00 | 96 | 1018.4 |
| 20260906055546 | 66 | 0 | 0.0 | 0.9 | 0.00 | 0.02 | 0.00 | 95 | 1018.3 |
| 20260906055046 | 66 | 0 | 0.0 | 0.9 | 0.00 | 0.02 | 0.00 | 95 | 1018.3 |
| 20260906054559 | 66 | 0 | 0.0 | 0.9 | 0.00 | 0.02 | 0.00 | 95 | 1018.3 |
| 20260906054046 | 66 | 0 | 0.0 | 0.0 | 0.00 | 0.02 | 0.00 | 95 | 1018.2 |
| 20260906053546 | 66 | 0 | 0.0 | 0.0 | 0.00 | 0.02 | 0.00 | 95 | 1018.2 |
| 20260906053110 | 66 | 0 | 0.0 | 0.9 | 0.00 | 0.02 | 0.00 | 95 | 1018.1 |
| 20260906052548 | 66 | 0 | 0.0 | 0.9 | 0.00 | 0.02 | 0.00 | 95 | 1018.2 |
| 20260906052045 | 66 | 0 | 0.0 | 0.9 | 0.00 | 0.02 | 0.00 | 95 | 1018.2 |
| 20260906051602 | 66 | 138 | 0.0 | 0.9 | 0.00 | 0.02 | 0.00 | 95 | 1018.0 |
| 20260906051048 | 66 | 0 | 0.0 | 0.9 | 0.00 | 0.02 | 0.00 | 95 | 1018.0 |
| 20260906050548 | 66 | 138 | 0.0 | 0.0 | 0.00 | 0.02 | 0.00 | 95 | 1018.2 |
| 20260906050100 | 66 | 0 | 0.0 | 0.0 | 0.00 | 0.02 | 0.00 | 95 | 1018.0 |
| 20260906045546 | 67 | 0 | 0.0 | 0.0 | 0.00 | 0.02 | 0.02 | 95 | 1018.1 |
| 20260906045043 | 67 | 0 | 0.0 | 0.9 | 0.00 | 0.02 | 0.02 | 95 | 1018.2 |
| 20260906044602 | 67 | 0 | 0.0 | 0.9 | 0.00 | 0.02 | 0.02 | 95 | 1018.1 |
| 20260906044044 | 67 | 0 | 0.0 | 1.7 | 0.00 | 0.02 | 0.02 | 95 | 1018.1 |
| 20260906043543 | 67 | 0 | 0.0 | 2.6 | 0.00 | 0.02 | 0.02 | 95 | 1018.0 |
| 20260906043107 | 67 | 0 | 0.9 | 2.6 | 0.00 | 0.02 | 0.02 | 95 | 1018.0 |
| 20260906042543 | 67 | 138 | 0.9 | 2.6 | 0.00 | 0.02 | 0.02 | 95 | 1017.8 |
| 20260906042044 | 67 | 0 | 0.0 | 1.7 | 0.00 | 0.02 | 0.02 | 95 | 1017.8 |
| 20260906041600 | 67 | 138 | 0.0 | 1.7 | 0.00 | 0.02 | 0.02 | 95 | 1017.9 |
| 20260906041043 | 68 | 294 | 0.0 | 1.7 | 0.00 | 0.02 | 0.02 | 95 | 1017.8 |
| 20260906040548 | 68 | 0 | 0.0 | 1.7 | 0.00 | 0.02 | 0.02 | 95 | 1017.8 |
| 20260906040117 | 68 | 294 | 0.0 | 1.7 | 0.00 | 0.02 | 0.02 | 95 | 1017.7 |
| 20260906035543 | 68 | 0 | 0.0 | 3.5 | 0.00 | 0.02 | 0.02 | 95 | 1017.7 |
| 20260906035044 | 68 | 0 | 0.0 | 3.5 | 0.00 | 0.02 | 0.02 | 95 | 1017.7 |
| 20260906034607 | 68 | 0 | 0.9 | 3.5 | 0.00 | 0.02 | 0.02 | 95 | 1017.5 |
| 20260906034044 | 68 | 0 | 0.9 | 1.7 | 0.00 | 0.02 | 0.02 | 95 | 1017.3 |
| 20260906033547 | 68 | 219 | 0.0 | 1.7 | 0.00 | 0.02 | 0.02 | 95 | 1017.4 |
| 20260906033116 | 68 | 219 | 0.9 | 1.7 | 0.00 | 0.02 | 0.02 | 95 | 1017.3 |
| 20260906032544 | 69 | 219 | 0.9 | 1.7 | 0.00 | 0.02 | 0.02 | 95 | 1017.2 |
| 20260906032044 | 69 | 219 | 0.0 | 1.7 | 0.00 | 0.02 | 0.02 | 95 | 1017.3 |
| 20260906031607 | 68 | 219 | 0.0 | 1.7 | 0.00 | 0.02 | 0.02 | 95 | 1017.3 |
| 20260906031044 | 68 | 0 | 0.0 | 1.7 | 0.00 | 0.02 | 0.02 | 95 | 1017.2 |
| 20260906030544 | 68 | 0 | 0.0 | 0.9 | 0.00 | 0.02 | 0.02 | 95 | 1017.3 |
| 20260906030106 | 68 | 0 | 0.0 | 0.9 | 0.00 | 0.02 | 0.02 | 95 | 1017.2 |
| 20260906025543 | 69 | 219 | 0.0 | 0.9 | 0.00 | 0.02 | 0.02 | 95 | 1017.1 |
| 20260906025046 | 69 | 0 | 0.0 | 1.7 | 0.00 | 0.02 | 0.02 | 94 | 1017.0 |
| 20260906024609 | 69 | 0 | 0.0 | 1.7 | 0.00 | 0.02 | 0.02 | 94 | 1017.0 |
| 20260906024046 | 69 | 0 | 0.0 | 1.7 | 0.00 | 0.02 | 0.02 | 94 | 1017.0 |
| 20260906023547 | 69 | 0 | 0.0 | 1.7 | 0.00 | 0.02 | 0.02 | 94 | 1017.0 |
| 20260906023105 | 69 | 219 | 0.0 | 1.7 | 0.00 | 0.02 | 0.02 | 94 | 1016.8 |
| 20260906022543 | 69 | 0 | 0.0 | 0.9 | 0.00 | 0.02 | 0.02 | 94 | 1016.8 |
| 20260906022047 | 69 | 0 | 0.0 | 0.9 | 0.00 | 0.02 | 0.02 | 94 | 1016.8 |
| 20260906021607 | 69 | 0 | 0.0 | 1.7 | 0.00 | 0.02 | 0.02 | 94 | 1016.7 |
| 20260906021043 | 69 | 0 | 0.0 | 1.7 | 0.00 | 0.02 | 0.02 | 94 | 1016.6 |
| 20260906020546 | 69 | 0 | 0.0 | 2.6 | 0.00 | 0.02 | 0.02 | 94 | 1016.5 |
| 20260906020109 | 70 | 55 | 0.0 | 2.6 | 0.00 | 0.02 | 0.02 | 94 | 1016.5 |
| 20260906015543 | 69 | 0 | 0.0 | 2.6 | 0.00 | 0.02 | 0.02 | 93 | 1016.6 |
| 20260906015044 | 69 | 0 | 0.0 | 1.7 | 0.00 | 0.02 | 0.02 | 93 | 1016.4 |
| 20260906014602 | 70 | 349 | 0.0 | 1.7 | 0.00 | 0.02 | 0.02 | 93 | 1016.4 |
| 20260906014043 | 70 | 0 | 0.0 | 1.7 | 0.00 | 0.02 | 0.02 | 93 | 1016.2 |
| 20260906013547 | 70 | 0 | 0.0 | 1.7 | 0.00 | 0.02 | 0.02 | 93 | 1016.1 |
| 20260906013108 | 70 | 0 | 0.0 | 1.7 | 0.00 | 0.02 | 0.02 | 93 | 1016.0 |
| 20260906012547 | 70 | 190 | 0.0 | 1.7 | 0.00 | 0.02 | 0.02 | 93 | 1016.0 |
| 20260906012043 | 70 | 0 | 0.0 | 0.9 | 0.00 | 0.02 | 0.02 | 93 | 1016.0 |
| 20260906011606 | 70 | 0 | 0.0 | 1.7 | 0.00 | 0.02 | 0.02 | 93 | 1015.8 |
| 20260906011047 | 71 | 190 | 0.0 | 2.6 | 0.00 | 0.02 | 0.02 | 93 | 1015.7 |
| 20260906010543 | 71 | 190 | 0.0 | 2.6 | 0.00 | 0.02 | 0.02 | 93 | 1015.7 |
| 20260906010107 | 71 | 0 | 0.0 | 1.7 | 0.00 | 0.02 | 0.02 | 93 | 1015.7 |
| 20260906005544 | 71 | 122 | 0.0 | 1.7 | 0.00 | 0.02 | 0.02 | 93 | 1015.8 |
| 20260906005045 | 71 | 0 | 0.0 | 1.7 | 0.00 | 0.02 | 0.02 | 93 | 1015.7 |
| 20260906004611 | 71 | 0 | 0.0 | 0.9 | 0.00 | 0.02 | 0.02 | 93 | 1015.7 |
| 20260906004046 | 71 | 0 | 0.0 | 1.7 | 0.00 | 0.02 | 0.02 | 93 | 1015.8 |
| 20260906003544 | 71 | 0 | 0.0 | 1.7 | 0.00 | 0.02 | 0.02 | 92 | 1015.8 |
| 20260906003105 | 71 | 0 | 0.0 | 1.7 | 0.00 | 0.02 | 0.02 | 92 | 1015.8 |
| 20260906002545 | 71 | 0 | 0.0 | 1.7 | 0.00 | 0.02 | 0.02 | 92 | 1015.9 |
| 20260906002044 | 71 | 83 | 0.0 | 1.7 | 0.00 | 0.02 | 0.02 | 92 | 1015.9 |
| 20260906001611 | 71 | 0 | 0.0 | 1.7 | 0.00 | 0.02 | 0.02 | 91 | 1016.0 |
| 20260906001045 | 72 | 13 | 0.9 | 1.7 | 0.00 | 0.02 | 0.02 | 91 | 1016.0 |
| 20260906000543 | 72 | 13 | 0.0 | 0.9 | 0.00 | 0.02 | 0.02 | 91 | 1016.0 |
| 20260906000107 | 72 | 0 | 0.0 | 1.7 | 0.00 | 0.02 | 0.02 | 91 | 1016.2 |
| 20260905235543 | 72 | 13 | 0.0 | 1.7 | 0.00 | 0.02 | 0.02 | 91 | 1016.2 |
| 20260905235046 | 72 | 13 | 0.9 | 1.7 | 0.00 | 0.02 | 0.02 | 91 | 1016.1 |
| 20260905234601 | 72 | 13 | 0.0 | 1.7 | 0.00 | 0.02 | 0.02 | 91 | 1016.2 |
| 20260905234043 | 72 | 13 | 0.0 | 0.9 | 0.00 | 0.02 | 0.02 | 90 | 1016.0 |
| 20260905233545 | 72 | 13 | 0.0 | 1.7 | 0.00 | 0.02 | 0.02 | 90 | 1016.2 |
| 20260905233059 | 73 | 0 | 0.0 | 1.7 | 0.00 | 0.02 | 0.02 | 89 | 1015.9 |
| 20260905232543 | 73 | 13 | 0.9 | 1.7 | 0.00 | 0.02 | 0.02 | 88 | 1016.0 |
| 20260905232044 | 73 | 13 | 0.9 | 1.7 | 0.00 | 0.02 | 0.02 | 88 | 1015.9 |
| 20260905231558 | 73 | 13 | 0.9 | 1.7 | 0.00 | 0.02 | 0.02 | 87 | 1016.1 |
| 20260905231043 | 74 | 13 | 0.0 | 2.6 | 0.00 | 0.02 | 0.02 | 87 | 1016.0 |
| 20260905230543 | 74 | 13 | 0.9 | 2.6 | 0.00 | 0.02 | 0.02 | 86 | 1016.1 |
| 20260905230108 | 74 | 344 | 0.9 | 2.6 | 0.00 | 0.02 | 0.02 | 86 | 1016.1 |
| 20260905225544 | 75 | 30 | 0.9 | 2.6 | 0.00 | 0.02 | 0.02 | 85 | 1016.1 |
| 20260905225044 | 75 | 30 | 0.9 | 2.6 | 0.00 | 0.02 | 0.02 | 84 | 1016.1 |
| 20260905224559 | 76 | 15 | 0.9 | 3.5 | 0.00 | 0.02 | 0.02 | 83 | 1016.2 |
| 20260905224050 | 76 | 15 | 0.9 | 4.3 | 0.00 | 0.02 | 0.02 | 81 | 1016.3 |
| 20260905223548 | 77 | 46 | 1.7 | 4.3 | 0.00 | 0.02 | 0.02 | 79 | 1016.3 |
| 20260905223106 | 78 | 32 | 1.7 | 4.3 | 0.00 | 0.02 | 0.02 | 78 | 1016.3 |
| 20260905222546 | 78 | 5 | 2.6 | 7.8 | 0.00 | 0.02 | 0.02 | 78 | 1016.2 |
| 20260905222047 | 79 | 22 | 2.6 | 8.7 | 0.00 | 0.02 | 0.02 | 77 | 1016.1 |
| 20260905221606 | 79 | 350 | 3.5 | 8.7 | 0.00 | 0.02 | 0.02 | 75 | 1016.1 |
| 20260905221046 | 80 | 341 | 4.3 | 8.7 | 0.00 | 0.02 | 0.02 | 74 | 1016.0 |
| 20260905220545 | 80 | 11 | 2.6 | 6.1 | 0.00 | 0.02 | 0.02 | 76 | 1016.1 |
| 20260905220103 | 79 | 47 | 2.6 | 6.1 | 0.00 | 0.02 | 0.02 | 74 | 1016.0 |
| 20260905215545 | 79 | 31 | 2.6 | 7.0 | 0.00 | 0.02 | 0.02 | 75 | 1016.0 |
| 20260905215046 | 79 | 9 | 2.6 | 7.8 | 0.00 | 0.02 | 0.02 | 77 | 1015.9 |
| 20260905214607 | 79 | 15 | 2.6 | 7.8 | 0.00 | 0.02 | 0.02 | 75 | 1016.0 |
| 20260905214045 | 80 | 26 | 2.6 | 7.8 | 0.00 | 0.02 | 0.02 | 75 | 1015.9 |
| 20260905213546 | 80 | 24 | 2.6 | 7.0 | 0.00 | 0.02 | 0.02 | 74 | 1015.8 |
| 20260905213111 | 80 | 71 | 1.7 | 8.7 | 0.00 | 0.02 | 0.02 | 75 | 1015.7 |
| 20260905212545 | 80 | 53 | 2.6 | 8.7 | 0.00 | 0.02 | 0.02 | 76 | 1015.8 |
| 20260905212044 | 80 | 26 | 4.3 | 8.7 | 0.00 | 0.02 | 0.02 | 74 | 1016.0 |
| 20260905211601 | 80 | 5 | 3.5 | 7.8 | 0.00 | 0.02 | 0.02 | 76 | 1016.0 |
| 20260905211045 | 80 | 11 | 2.6 | 6.1 | 0.00 | 0.02 | 0.02 | 79 | 1015.9 |
| 20260905210547 | 80 | 5 | 1.7 | 7.0 | 0.00 | 0.02 | 0.02 | 77 | 1015.9 |
| 20260905210123 | 81 | 86 | 1.7 | 7.0 | 0.00 | 0.02 | 0.02 | 75 | 1015.9 |
| 20260905205545 | 82 | 65 | 2.6 | 7.0 | 0.00 | 0.02 | 0.02 | 77 | 1016.0 |
| 20260905205046 | 81 | 20 | 1.7 | 7.8 | 0.00 | 0.02 | 0.02 | 79 | 1016.1 |
| 20260905204604 | 80 | 57 | 2.6 | 7.8 | 0.00 | 0.02 | 0.02 | 79 | 1016.2 |
| 20260905204045 | 79 | 34 | 1.7 | 7.8 | 0.00 | 0.02 | 0.02 | 80 | 1016.2 |
| 20260905203546 | 80 | 260 | 0.0 | 3.5 | 0.00 | 0.02 | 0.02 | 80 | 1016.1 |
| 20260905203057 | 80 | 69 | 1.7 | 7.0 | 0.00 | 0.02 | 0.02 | 80 | 1016.2 |
| 20260905202546 | 80 | 360 | 2.6 | 7.0 | 0.00 | 0.02 | 0.02 | 79 | 1016.2 |
| 20260905202046 | 79 | 19 | 1.7 | 7.8 | 0.00 | 0.02 | 0.02 | 84 | 1016.2 |
| 20260905201559 | 79 | 46 | 2.6 | 7.8 | 0.00 | 0.02 | 0.02 | 84 | 1016.2 |
| 20260905201044 | 79 | 355 | 3.5 | 7.8 | 0.00 | 0.02 | 0.02 | 81 | 1016.2 |
| 20260905200544 | 79 | 32 | 1.7 | 8.7 | 0.00 | 0.02 | 0.02 | 81 | 1016.1 |
| 20260905200117 | 79 | 33 | 0.9 | 8.7 | 0.00 | 0.02 | 0.02 | 82 | 1016.2 |
| 20260905195545 | 79 | 5 | 4.3 | 10.4 | 0.00 | 0.02 | 0.02 | 80 | 1016.1 |
| 20260905195045 | 79 | 5 | 6.1 | 10.4 | 0.00 | 0.02 | 0.02 | 79 | 1016.0 |
| 20260905194611 | 79 | 22 | 4.3 | 7.8 | 0.00 | 0.02 | 0.02 | 80 | 1015.9 |
| 20260905194045 | 79 | 5 | 1.7 | 7.0 | 0.00 | 0.02 | 0.02 | 82 | 1016.0 |
| 20260905193545 | 78 | 42 | 1.7 | 7.0 | 0.00 | 0.02 | 0.02 | 83 | 1016.1 |
| 20260905193101 | 79 | 30 | 2.6 | 7.0 | 0.00 | 0.02 | 0.02 | 82 | 1016.1 |
| 20260905192546 | 80 | 15 | 2.6 | 7.8 | 0.00 | 0.02 | 0.02 | 81 | 1016.1 |
| 20260905192049 | 80 | 22 | 2.6 | 7.8 | 0.00 | 0.02 | 0.02 | 82 | 1016.1 |
| 20260905191609 | 80 | 5 | 4.3 | 7.0 | 0.00 | 0.02 | 0.02 | 81 | 1016.1 |
| 20260905191045 | 79 | 5 | 2.6 | 7.0 | 0.00 | 0.02 | 0.02 | 85 | 1016.2 |
| 20260905190547 | 77 | 326 | 1.7 | 7.8 | 0.00 | 0.02 | 0.02 | 85 | 1016.2 |
| 20260905190117 | 77 | 32 | 3.5 | 7.8 | 0.00 | 0.02 | 0.02 | 86 | 1016.3 |
| 20260905185545 | 76 | 40 | 2.6 | 7.0 | 0.00 | 0.02 | 0.02 | 87 | 1016.3 |
| 20260905185045 | 76 | 28 | 2.6 | 7.8 | 0.00 | 0.02 | 0.02 | 88 | 1016.4 |
| 20260905184624 | 76 | 14 | 2.6 | 7.8 | 0.00 | 0.02 | 0.02 | 88 | 1016.6 |
| 20260905184045 | 76 | 360 | 2.6 | 7.0 | 0.00 | 0.02 | 0.02 | 87 | 1016.6 |
| 20260905183545 | 76 | 5 | 1.7 | 5.2 | 0.00 | 0.02 | 0.02 | 87 | 1016.7 |
| 20260905183107 | 76 | 36 | 3.5 | 5.2 | 0.00 | 0.02 | 0.02 | 86 | 1016.6 |
| 20260905182545 | 76 | 345 | 0.9 | 2.6 | 0.00 | 0.02 | 0.02 | 88 | 1016.6 |
| 20260905182046 | 76 | 42 | 0.9 | 4.3 | 0.00 | 0.02 | 0.02 | 89 | 1016.7 |
| 20260905181602 | 75 | 0 | 1.7 | 4.3 | 0.00 | 0.02 | 0.02 | 90 | 1016.7 |
| 20260905181046 | 75 | 350 | 0.9 | 3.5 | 0.00 | 0.02 | 0.02 | 91 | 1016.7 |
| 20260905180545 | 74 | 0 | 0.9 | 3.5 | 0.00 | 0.02 | 0.02 | 92 | 1016.7 |
| 20260905180105 | 74 | 331 | 0.9 | 3.5 | 0.00 | 0.02 | 0.02 | 93 | 1016.8 |
| 20260905175545 | 73 | 13 | 0.9 | 5.2 | 0.00 | 0.02 | 0.02 | 94 | 1016.8 |
| 20260905175045 | 73 | 9 | 1.7 | 5.2 | 0.00 | 0.02 | 0.02 | 95 | 1016.8 |
| 20260905174601 | 72 | 19 | 0.9 | 4.3 | 0.00 | 0.02 | 0.02 | 96 | 1016.9 |
| 20260905174045 | 72 | 19 | 1.7 | 4.3 | 0.00 | 0.02 | 0.02 | 97 | 1016.9 |
| 20260905173550 | 72 | 355 | 1.7 | 4.3 | 0.00 | 0.02 | 0.02 | 97 | 1016.9 |
| 20260905173116 | 71 | 15 | 0.9 | 3.5 | 0.00 | 0.02 | 0.02 | 97 | 1017.0 |
| 20260905172546 | 71 | 23 | 1.7 | 7.8 | 0.00 | 0.02 | 0.02 | 97 | 1017.0 |
| 20260905172049 | 71 | 34 | 1.7 | 7.8 | 0.00 | 0.02 | 0.02 | 97 | 1016.9 |
| 20260905171625 | 71 | 5 | 1.7 | 7.8 | 0.00 | 0.02 | 0.02 | 97 | 1016.8 |
| 20260905171048 | 71 | 36 | 2.6 | 7.8 | 0.00 | 0.02 | 0.02 | 97 | 1016.9 |
| 20260905170545 | 71 | 26 | 1.7 | 4.3 | 0.00 | 0.02 | 0.02 | 98 | 1016.9 |
| 20260905170113 | 71 | 28 | 1.7 | 4.3 | 0.00 | 0.02 | 0.02 | 98 | 1016.9 |
| 20260905165544 | 71 | 30 | 1.7 | 7.8 | 0.00 | 0.02 | 0.02 | 98 | 1017.1 |
| 20260905165046 | 71 | 44 | 1.7 | 7.8 | 0.00 | 0.02 | 0.02 | 98 | 1017.1 |
| 20260905164603 | 71 | 18 | 1.7 | 7.8 | 0.00 | 0.02 | 0.02 | 98 | 1017.1 |
| 20260905164045 | 71 | 44 | 0.9 | 3.5 | 0.00 | 0.02 | 0.02 | 98 | 1017.0 |
| 20260905163546 | 71 | 34 | 1.7 | 3.5 | 0.00 | 0.02 | 0.02 | 98 | 1017.1 |
| 20260905163114 | 71 | 41 | 1.7 | 6.1 | 0.00 | 0.02 | 0.02 | 98 | 1017.1 |
| 20260905162544 | 71 | 43 | 2.6 | 6.1 | 0.00 | 0.02 | 0.02 | 98 | 1017.1 |
| 20260905162046 | 71 | 21 | 0.9 | 3.5 | 0.00 | 0.02 | 0.02 | 98 | 1017.1 |
| 20260905161606 | 71 | 55 | 0.9 | 4.3 | 0.00 | 0.02 | 0.02 | 98 | 1017.1 |
| 20260905161045 | 71 | 32 | 1.7 | 4.3 | 0.00 | 0.02 | 0.02 | 98 | 1017.0 |
| 20260905160547 | 71 | 12 | 1.7 | 4.3 | 0.00 | 0.02 | 0.02 | 98 | 1016.9 |
| 20260905160107 | 71 | 41 | 0.9 | 2.6 | 0.00 | 0.02 | 0.02 | 98 | 1016.8 |
| 20260905155544 | 71 | 50 | 0.9 | 2.6 | 0.00 | 0.25 | 0.02 | 98 | 1016.7 |
| 20260905155046 | 72 | 30 | 0.0 | 5.2 | 0.00 | 0.25 | 0.02 | 98 | 1016.7 |
| 20260905154618 | 71 | 30 | 0.9 | 5.2 | 0.00 | 0.25 | 0.02 | 98 | 1016.7 |
| 20260905154047 | 72 | 360 | 0.9 | 3.5 | 0.00 | 0.25 | 0.02 | 98 | 1016.6 |
| 20260905153547 | 72 | 46 | 1.7 | 3.5 | 0.00 | 0.25 | 0.02 | 98 | 1016.7 |
| 20260905153114 | 72 | 355 | 0.9 | 3.5 | 0.00 | 0.25 | 0.02 | 98 | 1016.7 |
| 20260905152547 | 72 | 42 | 0.9 | 2.6 | 0.00 | 0.25 | 0.02 | 98 | 1016.6 |
| 20260905152048 | 72 | 333 | 0.9 | 2.6 | 0.00 | 0.25 | 0.02 | 98 | 1016.5 |
| 20260905151615 | 72 | 0 | 0.9 | 7.8 | 0.00 | 0.25 | 0.02 | 98 | 1016.4 |
| 20260905151043 | 72 | 51 | 1.7 | 7.8 | 0.00 | 0.25 | 0.02 | 98 | 1016.4 |
| 20260905150544 | 71 | 355 | 0.9 | 4.3 | 0.00 | 0.25 | 0.02 | 98 | 1016.3 |
| 20260905150101 | 72 | 5 | 0.9 | 4.3 | 0.00 | 0.25 | 0.02 | 98 | 1016.3 |
| 20260905145545 | 71 | 36 | 0.9 | 3.5 | 0.00 | 0.42 | 0.02 | 98 | 1016.2 |
| 20260905145045 | 71 | 48 | 0.9 | 3.5 | 0.00 | 0.42 | 0.02 | 98 | 1016.2 |
| 20260905144604 | 71 | 46 | 0.9 | 6.1 | 0.00 | 0.42 | 0.02 | 98 | 1016.2 |
| 20260905144047 | 71 | 350 | 1.7 | 6.1 | 0.00 | 0.42 | 0.02 | 98 | 1016.2 |
| 20260905143544 | 71 | 36 | 0.9 | 2.6 | 0.00 | 0.42 | 0.02 | 98 | 1016.1 |
| 20260905143108 | 71 | 46 | 0.9 | 2.6 | 0.00 | 0.42 | 0.02 | 98 | 1016.1 |
| 20260905142547 | 71 | 26 | 0.9 | 4.3 | 0.00 | 0.42 | 0.02 | 98 | 1016.1 |
| 20260905142046 | 71 | 49 | 0.9 | 4.3 | 0.00 | 0.42 | 0.02 | 98 | 1015.9 |
| 20260905141607 | 71 | 5 | 0.9 | 3.5 | 0.00 | 0.42 | 0.02 | 98 | 1015.8 |
| 20260905141044 | 71 | 360 | 0.9 | 3.5 | 0.01 | 0.42 | 0.02 | 98 | 1015.6 |
| 20260905140545 | 71 | 355 | 0.9 | 2.6 | 0.01 | 0.42 | 0.02 | 98 | 1015.5 |
| 20260905140109 | 71 | 0 | 0.9 | 2.6 | 0.01 | 0.42 | 0.02 | 98 | 1015.5 |
| 20260905135545 | 71 | 0 | 0.0 | 3.5 | 0.01 | 0.42 | 0.02 | 98 | 1015.6 |
| 20260905135045 | 71 | 121 | 0.9 | 3.5 | 0.01 | 0.42 | 0.02 | 98 | 1015.4 |
| 20260905134604 | 71 | 355 | 0.9 | 3.5 | 0.01 | 0.42 | 0.02 | 98 | 1015.3 |
| 20260905134047 | 71 | 346 | 0.9 | 2.6 | 0.01 | 0.42 | 0.02 | 98 | 1015.5 |
| 20260905133546 | 71 | 346 | 0.9 | 2.6 | 0.01 | 0.42 | 0.02 | 98 | 1015.4 |
| 20260905133104 | 71 | 346 | 0.0 | 2.6 | 0.01 | 0.42 | 0.02 | 98 | 1015.3 |
| 20260905132546 | 71 | 346 | 0.9 | 2.6 | 0.01 | 0.42 | 0.02 | 98 | 1015.3 |
| 20260905132046 | 71 | 355 | 0.9 | 2.6 | 0.01 | 0.42 | 0.02 | 98 | 1015.2 |
| 20260905131610 | 71 | 20 | 0.0 | 1.7 | 0.01 | 0.42 | 0.02 | 98 | 1015.3 |
| 20260905131048 | 71 | 0 | 0.9 | 2.6 | 0.00 | 0.41 | 0.01 | 98 | 1015.3 |
| 20260905130545 | 71 | 0 | 0.0 | 2.6 | 0.00 | 0.41 | 0.01 | 98 | 1015.3 |
| 20260905130107 | 71 | 0 | 0.0 | 2.6 | 0.00 | 0.41 | 0.01 | 98 | 1015.3 |
| 20260905125546 | 71 | 13 | 0.9 | 3.5 | 0.00 | 0.41 | 0.01 | 98 | 1015.3 |
| 20260905125045 | 71 | 355 | 0.9 | 3.5 | 0.00 | 0.41 | 0.01 | 98 | 1015.2 |
| 20260905124608 | 71 | 38 | 0.9 | 4.3 | 0.00 | 0.41 | 0.01 | 98 | 1015.1 |
| 20260905124045 | 71 | 59 | 0.9 | 4.3 | 0.00 | 0.41 | 0.01 | 98 | 1015.2 |
| 20260905123546 | 71 | 44 | 1.7 | 4.3 | 0.00 | 0.41 | 0.01 | 98 | 1015.2 |
| 20260905123107 | 71 | 37 | 1.7 | 3.5 | 0.00 | 0.41 | 0.01 | 98 | 1015.1 |
| 20260905122544 | 71 | 5 | 1.7 | 5.2 | 0.00 | 0.41 | 0.01 | 98 | 1015.1 |
| 20260905122043 | 71 | 30 | 1.7 | 5.2 | 0.00 | 0.41 | 0.01 | 98 | 1015.2 |
| 20260905121605 | 71 | 35 | 0.9 | 3.5 | 0.00 | 0.41 | 0.01 | 98 | 1015.2 |
| 20260905121045 | 71 | 32 | 1.7 | 4.3 | 0.00 | 0.41 | 0.01 | 98 | 1015.2 |
| 20260905120547 | 71 | 355 | 1.7 | 4.3 | 0.00 | 0.41 | 0.01 | 98 | 1015.4 |
| 20260905120108 | 71 | 14 | 1.7 | 3.5 | 0.00 | 0.41 | 0.01 | 98 | 1015.1 |
| 20260905115547 | 71 | 13 | 0.9 | 3.5 | 0.00 | 0.41 | 0.01 | 98 | 1014.5 |
| 20260905115046 | 71 | 10 | 1.7 | 3.5 | 0.00 | 0.41 | 0.01 | 98 | 1014.2 |
| 20260905114606 | 71 | 25 | 1.7 | 3.5 | 0.00 | 0.41 | 0.01 | 98 | 1014.2 |
| 20260905114045 | 71 | 25 | 1.7 | 3.5 | 0.00 | 0.41 | 0.01 | 98 | 1014.1 |
| 20260905113545 | 71 | 25 | 0.9 | 1.7 | 0.00 | 0.41 | 0.01 | 98 | 1014.0 |
| 20260905113103 | 71 | 25 | 0.0 | 1.7 | 0.00 | 0.41 | 0.01 | 98 | 1014.0 |
| 20260905112547 | 71 | 25 | 0.0 | 0.0 | 0.00 | 0.41 | 0.01 | 98 | 1013.8 |
| 20260905112044 | 71 | 0 | 0.0 | 0.9 | 0.00 | 0.41 | 0.01 | 98 | 1013.8 |
| 20260905111646 | 71 | 0 | 0.0 | 1.7 | 0.00 | 0.41 | 0.01 | 98 | 1013.5 |
| 20260905111045 | 71 | 0 | 0.0 | 1.7 | 0.00 | 0.41 | 0.01 | 98 | 1013.6 |
| 20260905110545 | 71 | 25 | 0.9 | 1.7 | 0.00 | 0.41 | 0.01 | 98 | 1013.6 |
| 20260905105546 | 71 | 25 | 0.9 | 3.5 | 0.00 | 0.41 | 0.01 | 98 | 1013.4 |